Location: Colonia Mina de C?rbuni
(46.1667°N, 22.7167°E)
Time: 17:49:47
(UTC+00:00)

Vanguard 2 Rocket - Visible Passes

Search period start: 19 April 2024 00:00
Search period end: 29 April 2024 00:00
Orbit: 555 x 3307 km, 32.9° (Epoch: 19 April)

Date Brightness Start Highest point End Pass type
(mag) Time Alt. Az. Time Alt. Az. Time Alt. Az.
19 Apr 9.6 02:17:10 10° W 02:30:59 28° SW 02:41:08 10° SSE visible
19 Apr 9.9 18:27:30 10° SSW 18:40:58 31° SE 18:56:45 10° E visible
19 Apr 9.5 20:38:53 10° SW 20:56:19 50° SSE 21:14:13 10° E visible
19 Apr 9.4 22:53:58 10° WSW 23:12:57 53° S 23:28:51 10° ESE visible
20 Apr 9.5 01:11:40 10° W 01:28:17 36° SSW 01:40:35 10° SSE visible
20 Apr 9.6 19:36:33 10° SW 19:52:22 44° SSE 20:10:22 10° E visible
20 Apr 9.5 21:50:17 10° WSW 22:08:48 54° S 22:26:10 10° ESE visible
21 Apr 9.5 00:06:49 10° W 00:25:00 44° SSW 00:39:17 10° SE visible
21 Apr 9.9 02:26:42 10° W 02:38:44 22° SW 02:48:12 10° S visible
21 Apr 9.7 18:34:56 10° SSW 18:48:49 37° SSE 19:05:53 10° E visible
21 Apr 9.5 20:47:10 10° WSW 21:04:34 53° S 21:22:55 10° ESE visible
21 Apr 9.5 23:02:32 10° W 23:21:13 50° SSW 23:37:17 10° SE visible
22 Apr 9.7 01:20:40 10° W 01:36:10 31° SW 01:48:15 10° SSE visible
22 Apr 9.9 17:34:08 10° SSW 17:45:47 28° SE 18:00:37 10° E visible
22 Apr 9.6 19:44:41 10° SW 20:00:29 49° SSE 20:19:05 10° E visible
22 Apr 9.5 21:58:48 10° WSW 22:17:05 53° S 22:34:41 10° ESE visible
23 Apr 9.6 00:15:35 10° W 00:33:00 39° SSW 00:47:15 10° SSE visible
23 Apr 10.1 02:37:13 10° W 02:46:20 16° SW 02:54:05 10° SSW visible
23 Apr 9.6 18:42:48 10° SW 18:56:46 42° SSE 19:14:41 10° E visible
23 Apr 9.5 20:55:38 10° WSW 21:12:49 54° S 21:31:27 10° ESE visible
23 Apr 9.5 23:11:12 10° W 23:29:21 46° SSW 23:45:28 10° SE visible
24 Apr 9.9 01:30:04 10° W 01:43:52 25° SW 01:55:15 10° S visible
24 Apr 9.7 17:41:36 10° SSW 17:53:34 34° SSE 18:09:41 10° E visible
24 Apr 9.5 19:53:02 10° WSW 20:08:40 52° S 20:27:38 10° ESE visible
24 Apr 9.5 22:07:25 10° W 22:25:18 51° SSW 22:42:58 10° SE visible
25 Apr 9.7 00:24:34 10° W 00:40:51 33° SW 00:54:45 10° SSE visible
25 Apr 10.3 02:51:48 10° WSW 02:53:47 10° SW 02:55:43 10° SW visible
25 Apr 9.5 18:50:59 10° SW 19:04:51 47° SSE 19:23:16 10° E visible
25 Apr 9.5 21:04:13 10° WSW 21:21:04 53° S 21:39:48 10° ESE visible
25 Apr 9.7 23:20:00 10° W 23:37:20 40° SSW 23:53:16 10° SE visible
26 Apr 10.1 01:40:16 10° W 01:51:25 18° SW 02:01:13 10° SSW visible
26 Apr 9.6 17:49:32 10° SW 18:01:30 40° SSE 18:18:24 10° E visible
26 Apr 9.5 20:01:32 10° WSW 20:16:55 53° S 20:34:20 14° ESE visible
26 Apr 9.6 22:16:09 10° W 22:33:25 47° SSW 22:50:58 10° SE visible
27 Apr 10.0 00:33:54 10° W 00:53:31 24° SSW 01:01:37 10° S visible
27 Apr 9.5 18:59:23 10° WSW 19:13:02 50° SSE 19:31:41 10° ESE visible
27 Apr 9.5 21:12:54 10° W 21:29:17 51° S 21:38:32 34° SE visible
27 Apr 9.8 23:29:00 10° W 23:58:16 15° SSE 00:00:36 10° SSE visible
28 Apr 10.4 02:04:05 11° SW 02:04:05 11° SW 02:04:47 10° SSW visible
28 Apr 9.4 17:57:45 10° SW 18:09:34 44° SSE 18:26:54 10° E visible
28 Apr 9.5 20:10:11 10° WSW 20:25:10 52° S 20:38:16 24° ESE visible
28 Apr 9.7 22:25:00 10° W 22:41:26 41° SSW 22:43:43 40° SSW visible
